Location: Baix
(44.7118°N, 4.7648°E)
Time: 17:05:29
(UTC+00:00)

Okean 1-7 Rocket - Pass Details

Date: 07 August 2020
Orbit: 617 x 648 km, 82.5° (Epoch: 22 September)

Event Time Altitude Azimuth Distance (km) Brightness Sun altitude
Rises 02:26:10 0° 350° (N) 2,905 7.6 -19.0°
Reaches altitude 10° 02:28:24 10° 349° (N) 1,997 6.7 -18.8°
Maximum altitude 02:32:49 78° 264° (W) 642 3.5 -18.2°
Enters shadow 02:35:06 28° 181° (S) 1,172 4.6 -18.0°
